• In Kazakhstan
  • List of Countries
  • For 7 days
  • Water Temperature
  • Weather Map
  • News
  • Weather Widgets
  • user-avatar
    Login

    Hourly Weather San Carlos

    Today, 9 April, Thursday

    Time Temperature Precipitation Wind Pressure Humidity
    00:00 +30°C° 0 mm 1 mps 744 mmHg 63%
    01:00 +29°C° 0 mm 1 mps 743 mmHg 66%
    02:00 +29°C° 0 mm 1 mps 743 mmHg 67%
    03:00 +29°C° 0 mm 1 mps 743 mmHg 67%
    04:00 +27°C° 0 mm 0 mps 742 mmHg 68%
    05:00 +30°C° 0 mm 1 mps 743 mmHg 65%
    06:00 +31°C° 0 mm 1 mps 744 mmHg 62%
    07:00 +32°C° 0 mm 1 mps 745 mmHg 58%
    08:00 +34°C° 0 mm 2 mps 745 mmHg 54%
    09:00 +35°C° 0 mm 3 mps 745 mmHg 49%
    10:00 +36°C° 0 mm 3 mps 745 mmHg 44%
    11:00 +37°C° 0 mm 3 mps 744 mmHg 42%
    12:00 +38°C° 0 mm 3 mps 743 mmHg 39%
    13:00 +39°C° 0 mm 3 mps 742 mmHg 37%
    14:00 +39°C° 0 mm 2 mps 742 mmHg 37%
    15:00 +38°C° 0 mm 2 mps 741 mmHg 37%
    16:00 +38°C° 0 mm 2 mps 741 mmHg 37%
    17:00 +36°C° 0 mm 1 mps 741 mmHg 41%
    18:00 +34°C° 0 mm 1 mps 742 mmHg 44%
    19:00 +33°C° 0 mm 1 mps 742 mmHg 48%
    20:00 +32°C° 0 mm 1 mps 743 mmHg 50%
    21:00 +32°C° 0 mm 1 mps 743 mmHg 53%
    22:00 +31°C° 0 mm 1 mps 744 mmHg 56%
    23:00 +31°C° 0 mm 1 mps 743 mmHg 58%

    Tomorrow, 10 April, Friday

    Time Temperature Precipitation Wind Pressure Humidity
    00:00 +30°C° 0 mm 1 mps 743 mmHg 61%
    01:00 +30°C° 0 mm 1 mps 743 mmHg 64%
    02:00 +29°C° 0 mm 1 mps 743 mmHg 65%
    03:00 +29°C° 0 mm 1 mps 743 mmHg 67%
    04:00 +29°C° 0 mm 1 mps 743 mmHg 68%
    05:00 +29°C° 0 mm 1 mps 743 mmHg 66%
    06:00 +30°C° 0 mm 1 mps 744 mmHg 63%
    07:00 +31°C° 0 mm 1 mps 745 mmHg 61%
    08:00 +33°C° 0.1 mm 1 mps 745 mmHg 55%
    09:00 +36°C° 0.1 mm 2 mps 745 mmHg 49%
    10:00 +38°C° 0.1 mm 2 mps 745 mmHg 43%
    11:00 +38°C° 0 mm 2 mps 744 mmHg 40%
    12:00 +39°C° 0 mm 2 mps 743 mmHg 37%
    13:00 +40°C° 0 mm 2 mps 742 mmHg 34%
    14:00 +40°C° 0 mm 2 mps 742 mmHg 34%
    15:00 +40°C° 0 mm 2 mps 741 mmHg 33%
    16:00 +39°C° 0 mm 2 mps 741 mmHg 33%
    17:00 +38°C° 0 mm 2 mps 741 mmHg 37%
    18:00 +35°C° 0 mm 1 mps 742 mmHg 41%
    19:00 +33°C° 0 mm 1 mps 742 mmHg 46%
    20:00 +32°C° 0 mm 1 mps 743 mmHg 48%
    21:00 +30°C° 0 mm 0 mps 744 mmHg 50%
    22:00 +29°C° 0 mm 0 mps 744 mmHg 52%
    23:00 +31°C° 0 mm 1 mps 744 mmHg 53%

    Day after tomorrow, 11 April, Saturday

    Time Temperature Precipitation Wind Pressure Humidity
    00:00 +30°C° 0 mm 1 mps 744 mmHg 55%
    01:00 +30°C° 0 mm 1 mps 744 mmHg 57%
    02:00 +30°C° 0 mm 1 mps 744 mmHg 59%
    03:00 +27°C° 0 mm 0 mps 744 mmHg 61%
    04:00 +27°C° 0 mm 0 mps 744 mmHg 63%
    05:00 +28°C° 0 mm 0 mps 744 mmHg 60%
    06:00 +29°C° 0 mm 0 mps 745 mmHg 57%
    07:00 +30°C° 0 mm 0 mps 745 mmHg 54%
    08:00 +34°C° 0 mm 1 mps 745 mmHg 47%
    09:00 +37°C° 0 mm 2 mps 746 mmHg 41%
    10:00 +38°C° 0 mm 3 mps 746 mmHg 34%
    11:00 +39°C° 0 mm 3 mps 745 mmHg 31%
    12:00 +42°C° 0 mm 3 mps 744 mmHg 28%
    13:00 +43°C° 0 mm 3 mps 743 mmHg 25%
    14:00 +42°C° 0 mm 3 mps 743 mmHg 24%
    15:00 +41°C° 0 mm 2 mps 742 mmHg 23%
    16:00 +41°C° 0 mm 2 mps 741 mmHg 22%
    17:00 +39°C° 0 mm 2 mps 742 mmHg 27%
    18:00 +36°C° 0 mm 2 mps 743 mmHg 32%
    19:00 +33°C° 0 mm 1 mps 743 mmHg 37%
    20:00 +32°C° 0 mm 1 mps 744 mmHg 45%
    21:00 +31°C° 0 mm 1 mps 744 mmHg 53%
    22:00 +30°C° 0 mm 1 mps 745 mmHg 60%
    23:00 +29°C° 0 mm 1 mps 745 mmHg 63%

    12 April, Sunday

    Time Temperature Precipitation Wind Pressure Humidity
    00:00 +28°C° 0 mm 1 mps 744 mmHg 66%
    01:00 +28°C° 0 mm 1 mps 744 mmHg 70%
    02:00 +27°C° 0 mm 1 mps 744 mmHg 70%
    03:00 +27°C° 0 mm 1 mps 744 mmHg 71%
    04:00 +26°C° 0 mm 1 mps 745 mmHg 72%
    05:00 +27°C° 0 mm 1 mps 745 mmHg 68%
    06:00 +28°C° 0 mm 1 mps 746 mmHg 65%
    07:00 +30°C° 0 mm 1 mps 746 mmHg 61%
    08:00 +32°C° 0 mm 1 mps 747 mmHg 51%
    09:00 +35°C° 0 mm 1 mps 747 mmHg 42%
    10:00 +39°C° 0 mm 1 mps 747 mmHg 33%
    11:00 +40°C° 0 mm 1 mps 746 mmHg 28%
    12:00 +41°C° 0 mm 2 mps 745 mmHg 24%
    13:00 +42°C° 0 mm 2 mps 744 mmHg 20%
    14:00 +42°C° 0 mm 2 mps 744 mmHg 21%
    15:00 +41°C° 0 mm 2 mps 743 mmHg 22%
    16:00 +41°C° 0 mm 2 mps 743 mmHg 23%
    17:00 +38°C° 0 mm 2 mps 743 mmHg 33%
    18:00 +35°C° 0 mm 2 mps 744 mmHg 44%
    19:00 +31°C° 0 mm 2 mps 744 mmHg 54%
    20:00 +30°C° 0 mm 2 mps 745 mmHg 58%
    21:00 +29°C° 0 mm 2 mps 745 mmHg 62%
    22:00 +28°C° 0 mm 2 mps 746 mmHg 66%
    23:00 +27°C° 0 mm 1 mps 746 mmHg 69%

    13 April, Monday

    Time Temperature Precipitation Wind Pressure Humidity
    00:00 +26°C° 0 mm 1 mps 745 mmHg 71%
    01:00 +26°C° 0 mm 1 mps 745 mmHg 73%
    02:00 +26°C° 0 mm 1 mps 745 mmHg 74%
    03:00 +25°C° 0 mm 1 mps 745 mmHg 75%
    04:00 +25°C° 0 mm 1 mps 745 mmHg 76%
    05:00 +26°C° 0 mm 1 mps 746 mmHg 71%
    06:00 +27°C° 0 mm 1 mps 746 mmHg 66%
    07:00 +26°C° 0 mm 0 mps 747 mmHg 60%
    08:00 +31°C° 0 mm 1 mps 747 mmHg 51%
    09:00 +34°C° 0 mm 1 mps 747 mmHg 42%
    10:00 +37°C° 0 mm 1 mps 747 mmHg 32%
    11:00 +40°C° 0 mm 1 mps 746 mmHg 28%
    12:00 +41°C° 0 mm 1 mps 745 mmHg 24%
    13:00 +42°C° 0 mm 1 mps 744 mmHg 21%
    14:00 +41°C° 0 mm 2 mps 744 mmHg 22%
    15:00 +41°C° 0 mm 2 mps 743 mmHg 23%
    16:00 +40°C° 0 mm 2 mps 743 mmHg 24%
    17:00 +37°C° 0 mm 2 mps 743 mmHg 33%
    18:00 +35°C° 0 mm 2 mps 744 mmHg 43%
    19:00 +31°C° 0 mm 2 mps 744 mmHg 52%
    20:00 +30°C° 0 mm 2 mps 744 mmHg 55%
    21:00 +29°C° 0 mm 2 mps 745 mmHg 58%
    22:00 +27°C° 0 mm 2 mps 745 mmHg 61%
    23:00 +27°C° 0 mm 2 mps 745 mmHg 64%

    14 April, Tuesday

    Time Temperature Precipitation Wind Pressure Humidity
    00:00 +26°C° 0 mm 2 mps 745 mmHg 67%
    01:00 +25°C° 0 mm 2 mps 744 mmHg 70%
    02:00 +25°C° 0 mm 1 mps 744 mmHg 72%
    03:00 +25°C° 0 mm 1 mps 744 mmHg 74%
    04:00 +25°C° 0 mm 1 mps 745 mmHg 76%
    05:00 +26°C° 0 mm 1 mps 745 mmHg 71%
    06:00 +27°C° 0 mm 1 mps 745 mmHg 66%
    07:00 +28°C° 0 mm 1 mps 746 mmHg 61%
    08:00 +31°C° 0 mm 1 mps 746 mmHg 50%
    09:00 +34°C° 0 mm 1 mps 746 mmHg 39%
    10:00 +39°C° 0 mm 1 mps 746 mmHg 28%
    11:00 +40°C° 0 mm 1 mps 745 mmHg 25%
    12:00 +41°C° 0 mm 1 mps 744 mmHg 22%
    13:00 +43°C° 0 mm 1 mps 743 mmHg 19%
    14:00 +42°C° 0 mm 1 mps 742 mmHg 21%
    15:00 +40°C° 0 mm 2 mps 742 mmHg 23%
    16:00 +39°C° 0 mm 3 mps 741 mmHg 24%
    17:00 +37°C° 0 mm 3 mps 742 mmHg 30%
    18:00 +34°C° 0 mm 3 mps 742 mmHg 35%
    19:00 +31°C° 0 mm 3 mps 743 mmHg 41%
    20:00 +29°C° 0 mm 2 mps 743 mmHg 46%
    21:00 +28°C° 0 mm 2 mps 744 mmHg 50%
    22:00 +27°C° 0 mm 2 mps 744 mmHg 55%
    23:00 +26°C° 0 mm 2 mps 744 mmHg 59%
    Show more